Location: Newark
(7.0858°N, 171.3717°E)
Time: 08:33:20
(UTC+00:00)

S-56A Canister/Altair - Pass Details

Date: 01 December 2020
Orbit: 633 x 2499 km, 38.9° (Epoch: 27 January)

Event Time Altitude Azimuth Distance (km) Brightness Sun altitude
Rises 06:11:11 0° 253° (WSW) 6,174 15.2 0.2°
Reaches altitude 10° 06:15:53 10° 261° (W) 5,120 13.6 -0.8°
Maximum altitude 06:28:36 36° 321° (NW) 3,081 10.8 -3.8°
Drops below altitude 10° 06:38:40 10° 24° (NNE) 4,028 10.8 -6.1°
Sets 06:41:55 0° 34° (NNE) 4,757 11.1 -6.9°
